Calgary Springbank,

7:26 AM MDT on July 27, 2017 (GMT -0600)
Calgary Springbank

Weather History for CYBW - April, 2013

Change the Weather History Date:

Sunday, April 7, 2013

  Actual Average Record
Temperature  
Mean Temperature 23 °F -  
Max Temperature 25 °F 48 °F 68 °F (2005)
Min Temperature 19 °F 26 °F 8 °F (1997)
Degree Days  
Heating Degree Days 42    
Moisture  
Dew Point 21 °F    
Average Humidity 91    
Maximum Humidity 100    
Minimum Humidity 76    
Precipitation  
Precipitation 0.04 in - - ()
Sea Level Pressure  
Sea Level Pressure 29.97 in    
Wind  
Wind Speed 7 mph ()    
Max Wind Speed 12 mph    
Max Gust Speed -    
Visibility 3.3 miles    
Events Rain , Snow    
Averages and records for this station are not official NWS values.
T = Trace of Precipitation, MM = Missing Value Source: Averaged Metar Reports

Daily Weather History Graph

Daily Weather History Graph

Search for Another Location

Airport or City:

Trip Planner

Search our weather history database for the weather conditions in past years. The results will help you decide how hot, cold, wet, or windy it might be!

Date:

Astronomy

Apr. 07, 2013 Rise Set
Actual Time 6:59 AM MDT 8:20 PM MDT
Civil Twilight 6:24 AM MDT 8:55 PM MDT
Nautical Twilight 5:43 AM MDT 9:37 PM MDT
Astronomical Twilight 4:58 AM MDT 10:22 PM MDT
Moon 5:35 AM MDT (4/7) 5:44 PM MDT (4/7)
Length of Visible Light 14h 30m
Length of Day
13h 21m
Waning Crescent, 8% of the Moon is Illuminated
Apr 7
Waning Crescent
Apr 10
New
Apr 18
First Quarter
Apr 25
Full
May 2
Last Quarter

Hourly Weather History & Observations

Time (MDT) Temp. Windchill Dew Point Humidity Pressure Visibility Wind Dir Wind Speed Gust Speed Precip Events Conditions
5:00 AM 24.8 °F 17.9 °F 24.8 °F 100% 29.86 in 2.0 mi ENE 5.8 mph - N/A   Light Freezing Drizzle
6:00 AM 25 °F - 24 °F 96% 29.87 in 2 mi NE 6.9 mph - - Rain Light Freezing Drizzle
6:00 AM 24.8 °F 16.9 °F 24.8 °F 100% 29.87 in 2.0 mi NE 6.9 mph - N/A   Light Freezing Drizzle
7:00 AM 24.8 °F 16.1 °F 23.0 °F 93% 29.87 in 1.5 mi NE 8.1 mph - N/A   Light Freezing Drizzle
8:00 AM 24.8 °F 17.9 °F 23.0 °F 93% 29.88 in 1.5 mi NE 5.8 mph - N/A   Light Freezing Drizzle
8:48 AM 24.8 °F 16.9 °F 23.0 °F 93% 29.88 in 2.0 mi NE 6.9 mph - N/A Snow Light Snow Grains
9:00 AM 24.8 °F 14.6 °F 23.0 °F 93% 29.89 in 2.0 mi NE 10.4 mph - N/A Snow Light Snow
10:00 AM 24.8 °F 16.9 °F 23.0 °F 93% 29.91 in 2.0 mi NE 6.9 mph - N/A Snow Light Snow
10:24 AM 24.8 °F 16.9 °F 23.0 °F 93% 29.91 in 3.0 mi ENE 6.9 mph - N/A Snow Light Snow
11:00 AM 24.8 °F 14.6 °F 24.8 °F 100% 29.92 in 4.0 mi NE 10.4 mph - N/A Snow Light Snow
12:00 PM 25 °F - 23 °F 91% 29.94 in 5 mi ENE 10.4 mph - - Snow Light Snow
12:00 PM 24.8 °F 14.6 °F 23.0 °F 93% 29.94 in 5.0 mi ENE 10.4 mph - N/A Snow Light Snow
1:00 PM 24.8 °F 15.3 °F 23.0 °F 93% 29.96 in 2.5 mi ENE 9.2 mph - N/A Snow Light Snow
2:00 PM 24.8 °F 14.0 °F 23.0 °F 93% 29.98 in 3.0 mi ENE 11.5 mph - N/A Snow Light Snow
3:00 PM 24.8 °F 14.6 °F 21.2 °F 86% 29.99 in 7.0 mi NE 10.4 mph - N/A   Overcast
4:00 PM 24.8 °F 14.6 °F 19.4 °F 80% 30.01 in 7.0 mi NE 10.4 mph - N/A Snow Light Snow
5:00 PM 23.0 °F 13.9 °F 19.4 °F 86% 30.04 in 6.0 mi NE 8.1 mph - N/A Snow Light Snow
6:00 PM 23 °F - 18 °F 76% 30.07 in 5 mi NE 11.5 mph - - Snow Light Snow
6:00 PM 23.0 °F 12.4 °F 19.4 °F 86% 30.07 in 5.0 mi NE 10.4 mph - N/A Snow Light Snow
7:00 PM 21.2 °F 10.9 °F 19.4 °F 93% 30.10 in 3.0 mi NE 9.2 mph - N/A Snow Light Snow
8:00 PM 21.2 °F 12.6 °F 17.6 °F 86% 30.12 in 2.5 mi East 6.9 mph - N/A Snow Light Snow
8:24 PM 21.2 °F 13.6 °F 17.6 °F 86% 30.13 in 1.2 mi ENE 5.8 mph - N/A Snow Light Snow
9:00 PM 21.2 °F 12.6 °F 17.6 °F 86% 30.15 in 1.0 mi ENE 6.9 mph - N/A Snow Light Snow
10:00 PM 19.4 °F - 17.6 °F 93% 29.98 in 4.0 mi Calm Calm - N/A Snow Light Snow